Location: Unspecified
(0.0000°N, 0.0000°E)
Time: 03:47:26
(UTC+00:00)

Envisat - Pass Details

Date: 16 November 2019
Orbit: 764 x 766 km, 98.1° (Epoch: 11 November)

Event Time Altitude Azimuth Distance (km) Brightness Sun altitude
Rises 18:53:49 0° 182° (S) 3,230 6.5 -16.3°
Reaches altitude 10° 18:56:15 10° 189° (S) 2,301 5.8 -16.9°
Maximum altitude 19:00:59 41° 258° (WSW) 1,103 4.4 -18.0°
Drops below altitude 10° 19:05:43 10° 327° (NNW) 2,291 5.6 -19.1°
Sets 19:08:07 0° 335° (NNW) 3,214 6.3 -19.7°
